Gustavus, AK

3:46 PM AKDT on June 24, 2017 (GMT -0800)
Gustavus

Weather History for PAGS - January, 2015

Change the Weather History Date:

Saturday, January 3, 2015

  Actual Average Record
Temperature  
Mean Temperature 22 °F -  
Max Temperature 26 °F 30 °F 48 °F (2001)
Min Temperature 19 °F 21 °F -11 °F (1997)
Degree Days  
Heating Degree Days 42    
Moisture  
Dew Point -3 °F    
Average Humidity 32    
Maximum Humidity 39    
Minimum Humidity 29    
Precipitation  
Precipitation 0.00 in - - ()
Sea Level Pressure  
Sea Level Pressure 30.43 in    
Wind  
Wind Speed 9 mph (North)    
Max Wind Speed 14 mph    
Max Gust Speed 22 mph    
Visibility 10 miles    
Events      
Averages and records for this station are not official NWS values.
T = Trace of Precipitation, MM = Missing Value Source: NWS Daily Summary

Daily Weather History Graph

Daily Weather History Graph

Search for Another Location

Airport or City:

Trip Planner

Search our weather history database for the weather conditions in past years. The results will help you decide how hot, cold, wet, or windy it might be!

Date:

Astronomy

Jan. 03, 2015 Rise Set
Actual Time 8:50 AM AKST 3:24 PM AKST
Civil Twilight 7:58 AM AKST 4:16 PM AKST
Nautical Twilight 7:05 AM AKST 5:09 PM AKST
Astronomical Twilight 6:17 AM AKST 5:57 PM AKST
Moon 2:55 PM AKST (1/3) 7:03 AM AKST (1/3)
Length of Visible Light 8h 17m
Length of Day
6h 33m
Waxing Gibbous, 98% of the Moon is Illuminated
Jan 3
Waxing Gibbous
Jan 4
Full
Jan 13
Last Quarter
Jan 20
New
Jan 26
First Quarter

Hourly Weather History & Observations

Time (AKST) Temp. Windchill Dew Point Humidity Pressure Visibility Wind Dir Wind Speed Gust Speed Precip Events Conditions
12:16 AM 21.2 °F 14.9 °F -4.0 °F 33% 30.47 in 10.0 mi North 4.6 mph - N/A   Clear
12:36 AM 21.2 °F 13.6 °F -4.0 °F 33% 30.47 in 10.0 mi NNW 5.8 mph - N/A   Clear
12:56 AM 21.2 °F 13.6 °F -4.0 °F 33% 30.48 in 10.0 mi NNE 5.8 mph - N/A   Clear
1:16 AM 21.2 °F 12.6 °F -5.8 °F 30% 30.47 in 10.0 mi North 6.9 mph - N/A   Clear
1:36 AM 21.2 °F 10.9 °F -4.0 °F 33% 30.47 in 10.0 mi North 9.2 mph - N/A   Clear
1:56 AM 21.2 °F 11.7 °F -5.8 °F 30% 30.47 in 10.0 mi North 8.1 mph - N/A   Clear
2:16 AM 21.2 °F 10.1 °F -5.8 °F 30% 30.47 in 10.0 mi North 10.4 mph - N/A   Clear
2:36 AM 21.2 °F 10.1 °F -5.8 °F 30% 30.47 in 10.0 mi NNW 10.4 mph - N/A   Clear
2:56 AM 21.2 °F 11.7 °F -4.0 °F 33% 30.47 in 10.0 mi North 8.1 mph - N/A   Clear
3:16 AM 21.2 °F 9.5 °F -4.0 °F 33% 30.47 in 10.0 mi North 11.5 mph - N/A   Clear
3:36 AM 21.2 °F 10.9 °F -4.0 °F 33% 30.47 in 10.0 mi North 9.2 mph - N/A   Clear
3:56 AM 21.2 °F 10.9 °F -4.0 °F 33% 30.46 in 10.0 mi North 9.2 mph - N/A   Clear
4:16 AM 21.2 °F 10.1 °F -4.0 °F 33% 30.46 in 10.0 mi NNW 10.4 mph - N/A   Clear
4:36 AM 21.2 °F 12.6 °F -4.0 °F 33% 30.45 in 10.0 mi NNW 6.9 mph - N/A   Clear
4:56 AM 19.4 °F 11.5 °F -2.2 °F 39% 30.45 in 10.0 mi NNW 5.8 mph - N/A   Clear
5:16 AM 21.2 °F 10.9 °F -2.2 °F 36% 30.45 in 10.0 mi North 9.2 mph - N/A   Clear
5:36 AM 21.2 °F 13.6 °F -2.2 °F 36% 30.45 in 10.0 mi North 5.8 mph - N/A   Clear
5:56 AM 21.2 °F 14.9 °F -2.2 °F 36% 30.44 in 10.0 mi NNW 4.6 mph - N/A   Clear
6:16 AM 21.2 °F 10.9 °F -2.2 °F 36% 30.44 in 10.0 mi NNW 9.2 mph - N/A   Clear
6:36 AM 21.2 °F 10.9 °F -2.2 °F 36% 30.44 in 10.0 mi North 9.2 mph - N/A   Clear
6:56 AM 21.2 °F 10.9 °F -2.2 °F 36% 30.45 in 10.0 mi North 9.2 mph - N/A   Clear
7:16 AM 21.2 °F 9.5 °F -2.2 °F 36% 30.45 in 10.0 mi North 11.5 mph - N/A   Clear
7:36 AM 21.2 °F 9.5 °F -2.2 °F 36% 30.45 in 10.0 mi North 11.5 mph - N/A   Clear
7:56 AM 21.2 °F 10.1 °F -2.2 °F 36% 30.46 in 10.0 mi North 10.4 mph - N/A   Clear
8:16 AM 21.2 °F 10.9 °F -2.2 °F 36% 30.46 in 10.0 mi North 9.2 mph - N/A   Clear
8:36 AM 21.2 °F 10.1 °F -2.2 °F 36% 30.46 in 10.0 mi North 10.4 mph - N/A   Clear
8:56 AM 21.2 °F 10.1 °F -2.2 °F 36% 30.46 in 10.0 mi North 10.4 mph - N/A   Clear
9:16 AM 21.2 °F 10.1 °F -2.2 °F 36% 30.46 in 10.0 mi North 10.4 mph 16.1 mph N/A   Clear
9:36 AM 21.2 °F 9.5 °F -2.2 °F 36% 30.46 in 10.0 mi North 11.5 mph 16.1 mph N/A   Clear
9:56 AM 23.0 °F 11.7 °F -2.2 °F 33% 30.46 in 10.0 mi North 11.5 mph 17.3 mph N/A   Clear
10:16 AM 23.0 °F 10.6 °F -2.2 °F 33% 30.46 in 10.0 mi NNE 13.8 mph 19.6 mph N/A   Clear
10:36 AM 24.8 °F 13.4 °F -2.2 °F 31% 30.46 in 10.0 mi North 12.7 mph 18.4 mph N/A   Clear
10:56 AM 24.8 °F 13.4 °F -2.2 °F 31% 30.47 in 10.0 mi North 12.7 mph 19.6 mph N/A   Clear
11:16 AM 24.8 °F 14.6 °F -2.2 °F 31% 30.47 in 10.0 mi North 10.4 mph 17.3 mph N/A   Clear
11:36 AM 24.8 °F 13.4 °F -2.2 °F 31% 30.47 in 10.0 mi North 12.7 mph - N/A   Clear
11:56 AM 24.8 °F 14.6 °F -2.2 °F 31% 30.47 in 10.0 mi North 10.4 mph 19.6 mph N/A   Clear
12:16 PM 24.8 °F 14.6 °F -2.2 °F 31% 30.47 in 10.0 mi North 10.4 mph 20.7 mph N/A   Clear
12:36 PM 24.8 °F 14.6 °F -2.2 °F 31% 30.46 in 10.0 mi North 10.4 mph 18.4 mph N/A   Clear
12:56 PM 24.8 °F 13.4 °F -2.2 °F 31% 30.46 in 10.0 mi North 12.7 mph 16.1 mph N/A   Clear
1:16 PM 24.8 °F 13.4 °F -2.2 °F 31% 30.46 in 10.0 mi North 12.7 mph 18.4 mph N/A   Clear
1:36 PM 24.8 °F 14.6 °F -2.2 °F 31% 30.46 in 10.0 mi North 10.4 mph - N/A   Clear
1:56 PM 24.8 °F 15.3 °F -2.2 °F 31% 30.46 in 10.0 mi NNE 9.2 mph 16.1 mph N/A   Clear
2:16 PM 24.8 °F 14.6 °F -2.2 °F 31% 30.46 in 10.0 mi North 10.4 mph - N/A   Clear
2:36 PM 24.8 °F 16.1 °F -2.2 °F 31% 30.45 in 10.0 mi North 8.1 mph - N/A   Clear
2:56 PM 24.8 °F 14.6 °F -2.2 °F 31% 30.45 in 10.0 mi NNE 10.4 mph 16.1 mph N/A   Clear
3:16 PM 24.8 °F 14.0 °F -2.2 °F 31% 30.44 in 10.0 mi North 11.5 mph - N/A   Clear
3:36 PM 24.8 °F 14.0 °F -2.2 °F 31% 30.44 in 10.0 mi North 11.5 mph 17.3 mph N/A   Clear
3:56 PM 24.8 °F 15.3 °F -2.2 °F 31% 30.44 in 10.0 mi North 9.2 mph - N/A   Clear
4:16 PM 24.8 °F 15.3 °F -2.2 °F 31% 30.43 in 10.0 mi North 9.2 mph - N/A   Clear
4:36 PM 24.8 °F 17.9 °F -2.2 °F 31% 30.42 in 10.0 mi North 5.8 mph - N/A   Clear
4:56 PM 24.8 °F 17.9 °F -2.2 °F 31% 30.41 in 10.0 mi North 5.8 mph - N/A   Clear
5:16 PM 24.8 °F 14.6 °F -2.2 °F 31% 30.41 in 10.0 mi North 10.4 mph - N/A   Clear
5:36 PM 24.8 °F 15.3 °F -2.2 °F 31% 30.41 in 10.0 mi North 9.2 mph - N/A   Clear
5:56 PM 24.8 °F 14.6 °F -2.2 °F 31% 30.40 in 10.0 mi North 10.4 mph 18.4 mph N/A   Clear
6:16 PM 24.8 °F 14.6 °F -2.2 °F 31% 30.40 in 10.0 mi North 10.4 mph - N/A   Clear
6:36 PM 24.8 °F 14.6 °F -2.2 °F 31% 30.40 in 10.0 mi North 10.4 mph - N/A   Clear
6:56 PM 24.8 °F 14.0 °F -2.2 °F 31% 30.39 in 10.0 mi North 11.5 mph 17.3 mph N/A   Clear
7:16 PM 26.6 °F 16.8 °F -2.2 °F 29% 30.38 in 10.0 mi North 10.4 mph - N/A   Clear
7:36 PM 24.8 °F 14.6 °F -2.2 °F 31% 30.38 in 10.0 mi NNE 10.4 mph 19.6 mph N/A   Clear
7:56 PM 26.6 °F 16.2 °F -2.2 °F 29% 30.38 in 10.0 mi NNE 11.5 mph 16.1 mph N/A   Clear
8:16 PM 24.8 °F 16.1 °F -2.2 °F 31% 30.38 in 10.0 mi North 8.1 mph - N/A   Clear
8:36 PM 26.6 °F 18.2 °F -2.2 °F 29% 30.37 in 10.0 mi North 8.1 mph - N/A   Clear
8:56 PM 26.6 °F 16.2 °F -2.2 °F 29% 30.38 in 10.0 mi North 11.5 mph - N/A   Clear
9:16 PM 26.6 °F 15.7 °F -2.2 °F 29% 30.37 in 10.0 mi North 12.7 mph - N/A   Clear
9:36 PM 26.6 °F 16.2 °F -2.2 °F 29% 30.37 in 10.0 mi North 11.5 mph 16.1 mph N/A   Clear
9:56 PM 26.6 °F 16.2 °F -2.2 °F 29% 30.36 in 10.0 mi North 11.5 mph 16.1 mph N/A   Clear
10:16 PM 26.6 °F 17.5 °F -2.2 °F 29% 30.36 in 10.0 mi North 9.2 mph - N/A   Clear
10:36 PM 26.6 °F 16.2 °F -2.2 °F 29% 30.35 in 10.0 mi North 11.5 mph 16.1 mph N/A   Clear
10:56 PM 26.6 °F 15.7 °F -2.2 °F 29% 30.35 in 10.0 mi North 12.7 mph 21.9 mph N/A   Clear
11:16 PM 26.6 °F 16.2 °F -2.2 °F 29% 30.35 in 10.0 mi North 11.5 mph 17.3 mph N/A   Clear
11:36 PM 26.6 °F 16.8 °F -2.2 °F 29% 30.35 in 10.0 mi NNW 10.4 mph - N/A   Clear
11:56 PM 26.6 °F 17.5 °F -2.2 °F 29% 30.34 in 10.0 mi NNW 9.2 mph - N/A   Clear